| time (UTC) | temp F | wind direction | speed MPH | gust MPH | rain 1hr in | rain 24hr in | rain mn in | humidity % | barometer mb |
| 20260509062116 | 43 | 176 | 0.0 | 0.0 | 0.00 | 0.00 | 0.00 | 82 | 1012.7 |
| 20260509061617 | 43 | 176 | 0.0 | 0.0 | 0.00 | 0.00 | 0.00 | 82 | 1012.8 |
| 20260509061116 | 43 | 176 | 0.0 | 0.0 | 0.00 | 0.00 | 0.00 | 82 | 1012.8 |
| 20260509060615 | 0 | 0.0 | 0.0 | 0.00 | 0.00 | 0.00 | 1012.7 | ||
| 20260509060116 | 43 | 176 | 0.0 | 0.0 | 0.00 | 0.00 | 0.00 | 82 | 1012.9 |
| 20260509055614 | 43 | 176 | 0.0 | 0.0 | 0.00 | 0.00 | 0.00 | 82 | 1013.0 |
| 20260509055115 | 43 | 176 | 0.0 | 0.0 | 0.00 | 0.00 | 0.00 | 82 | 1013.1 |
| 20260509054617 | 43 | 165 | 0.0 | 0.0 | 0.00 | 0.00 | 0.00 | 83 | 1013.2 |
| 20260509054613 | 43 | 165 | 0.0 | 0.0 | 0.00 | 0.00 | 0.00 | 82 | 1013.0 |
| 20260509054227 | 43 | 165 | 0.0 | 0.0 | 0.00 | 0.00 | 0.00 | 82 | 1013.2 |
| 20260509053112 | 42 | 244 | 0.0 | 0.0 | 0.00 | 0.00 | 0.00 | 82 | 1013.2 |
| 20260509052612 | 42 | 244 | 0.0 | 0.0 | 0.00 | 0.00 | 0.00 | 82 | 1013.3 |
| 20260509052114 | 42 | 244 | 0.0 | 0.0 | 0.00 | 0.00 | 0.00 | 82 | 1013.4 |
| 20260509051614 | 42 | 244 | 0.0 | 0.0 | 0.00 | 0.00 | 0.00 | 82 | 1013.3 |
| 20260509051113 | 42 | 244 | 0.0 | 0.0 | 0.00 | 0.00 | 0.00 | 82 | 1013.4 |
| 20260509050612 | 42 | 244 | 0.0 | 0.0 | 0.00 | 0.00 | 0.00 | 82 | 1013.5 |
| 20260509050117 | 42 | 265 | 0.0 | 0.0 | 0.00 | 0.00 | 0.00 | 83 | 1013.5 |
| 20260509050113 | 42 | 265 | 0.0 | 0.0 | 0.00 | 0.00 | 0.00 | 82 | 1013.5 |
| 20260509045113 | 42 | 266 | 0.0 | 0.0 | 0.00 | 0.00 | 0.00 | 83 | 1013.7 |
| 20260509044616 | 41 | 266 | 0.0 | 0.0 | 0.00 | 0.00 | 0.00 | 83 | 1013.6 |
| 20260509044612 | 41 | 266 | 0.0 | 0.0 | 0.00 | 0.00 | 0.00 | 83 | 1013.6 |
| 20260509043611 | 41 | 266 | 0.0 | 0.0 | 0.00 | 0.00 | 0.00 | 83 | 1013.5 |
| 20260509043110 | 41 | 266 | 0.0 | 0.0 | 0.00 | 0.00 | 0.00 | 83 | 1013.5 |
| 20260509042619 | 41 | 266 | 0.0 | 0.0 | 0.00 | 0.00 | 0.00 | 83 | 1013.5 |
| 20260509042610 | 41 | 266 | 0.0 | 0.0 | 0.00 | 0.00 | 0.00 | 82 | 1013.4 |
| 20260509042111 | 41 | 266 | 0.0 | 0.0 | 0.00 | 0.00 | 0.00 | 82 | 1013.4 |
| 20260509041612 | 41 | 266 | 0.0 | 0.0 | 0.00 | 0.00 | 0.00 | 82 | 1013.4 |
| 20260509041110 | 41 | 266 | 0.0 | 0.0 | 0.00 | 0.00 | 0.00 | 83 | 1013.3 |
| 20260509040110 | 41 | 266 | 0.0 | 0.0 | 0.00 | 0.00 | 0.00 | 83 | 1013.4 |
| 20260509035610 | 41 | 266 | 0.0 | 0.0 | 0.00 | 0.00 | 0.02 | 83 | 1013.6 |
| 20260509035115 | 41 | 266 | 0.0 | 0.0 | 0.00 | 0.00 | 0.02 | 83 | 1013.5 |
| 20260509035110 | 41 | 266 | 0.0 | 0.0 | 0.00 | 0.00 | 0.02 | 83 | 1013.5 |
| 20260509034610 | 41 | 266 | 0.0 | 0.0 | 0.00 | 0.00 | 0.02 | 83 | 1013.4 |
| 20260509033614 | 40 | 266 | 0.0 | 0.0 | 0.00 | 0.00 | 0.02 | 82 | 1013.4 |
| 20260509033609 | 40 | 266 | 0.0 | 0.0 | 0.00 | 0.00 | 0.02 | 83 | 1013.4 |
| 20260509033225 | 40 | 266 | 0.0 | 0.0 | 0.00 | 0.00 | 0.02 | 81 | 1013.4 |
| 20260509032608 | 40 | 266 | 0.0 | 0.0 | 0.00 | 0.00 | 0.02 | 82 | 1013.3 |
| 20260509031609 | 40 | 266 | 0.0 | 0.0 | 0.00 | 0.00 | 0.02 | 81 | 1013.4 |
| 20260509031113 | 41 | 266 | 0.0 | 0.0 | 0.00 | 0.00 | 0.02 | 82 | 1013.3 |
| 20260509031109 | 40 | 266 | 0.0 | 0.0 | 0.00 | 0.00 | 0.02 | 81 | 1013.3 |
| 20260509030722 | 41 | 266 | 0.0 | 0.0 | 0.00 | 0.00 | 0.02 | 81 | 1013.2 |
| 20260509025613 | 41 | 266 | 0.0 | 0.0 | 0.00 | 0.00 | 0.02 | 81 | 1013.2 |
| 20260509025608 | 41 | 266 | 0.0 | 0.0 | 0.00 | 0.00 | 0.02 | 82 | 1013.3 |
| 20260509024607 | 41 | 266 | 0.0 | 0.0 | 0.00 | 0.00 | 0.02 | 81 | 1013.3 |
| 20260509024107 | 41 | 266 | 0.0 | 0.0 | 0.00 | 0.00 | 0.02 | 81 | 1013.3 |
| 20260509023612 | 41 | 269 | 0.0 | 0.0 | 0.00 | 0.00 | 0.02 | 81 | 1013.3 |
| 20260509023608 | 41 | 269 | 0.0 | 0.0 | 0.00 | 0.00 | 0.02 | 81 | 1013.3 |
| 20260509022607 | 41 | 269 | 0.0 | 0.0 | 0.00 | 0.00 | 0.02 | 81 | 1013.4 |
| 20260509022108 | 41 | 269 | 0.0 | 0.0 | 0.00 | 0.00 | 0.02 | 80 | 1013.4 |
| 20260509021607 | 41 | 269 | 0.0 | 0.0 | 0.00 | 0.00 | 0.02 | 80 | 1013.6 |
| 20260509021106 | 41 | 269 | 0.0 | 0.0 | 0.00 | 0.00 | 0.02 | 80 | 1013.5 |
| 20260509020606 | 42 | 269 | 0.0 | 0.0 | 0.00 | 0.00 | 0.02 | 79 | 1013.5 |
| 20260509020112 | 42 | 269 | 0.0 | 0.0 | 0.00 | 0.00 | 0.02 | 77 | 1013.5 |
| 20260509020106 | 42 | 269 | 0.0 | 0.0 | 0.00 | 0.00 | 0.02 | 79 | 1013.4 |
| 20260509015720 | 42 | 20 | 0.0 | 0.0 | 0.00 | 0.00 | 0.02 | 77 | 1013.4 |
| 20260509014604 | 43 | 20 | 0.0 | 0.0 | 0.00 | 0.00 | 0.02 | 77 | 1013.3 |
| 20260509014105 | 43 | 27 | 0.0 | 0.0 | 0.00 | 0.00 | 0.02 | 76 | 1013.1 |
| 20260509013605 | 43 | 27 | 0.0 | 0.0 | 0.00 | 0.00 | 0.02 | 76 | 1013.0 |
| 20260509013104 | 43 | 28 | 0.0 | 0.0 | 0.00 | 0.00 | 0.02 | 74 | 1012.8 |
| 20260509012604 | 44 | 28 | 0.0 | 0.0 | 0.00 | 0.00 | 0.02 | 72 | 1012.8 |
| 20260509012108 | 44 | 28 | 0.0 | 0.0 | 0.00 | 0.00 | 0.02 | 71 | 1012.7 |
| 20260509012104 | 44 | 28 | 0.0 | 0.0 | 0.00 | 0.00 | 0.02 | 72 | 1012.8 |
| 20260509011718 | 45 | 331 | 0.0 | 0.0 | 0.00 | 0.00 | 0.02 | 72 | 1012.5 |
| 20260509011105 | 45 | 30 | 0.0 | 0.0 | 0.00 | 0.00 | 0.02 | 71 | 1012.5 |
| 20260509010714 | 45 | 306 | 0.0 | 0.0 | 0.00 | 0.00 | 0.02 | 72 | 1012.5 |
| 20260509005603 | 45 | 266 | 0.0 | 0.0 | 0.00 | 0.00 | 0.02 | 71 | 1012.5 |
| 20260509005105 | 46 | 241 | 0.0 | 0.0 | 0.00 | 0.00 | 0.02 | 68 | 1012.4 |
| 20260509004602 | 46 | 241 | 0.0 | 0.0 | 0.00 | 0.00 | 0.02 | 68 | 1012.4 |
| 20260509004107 | 46 | 241 | 0.0 | 0.0 | 0.00 | 0.00 | 0.02 | 63 | 1012.1 |
| 20260509004103 | 46 | 241 | 0.0 | 0.0 | 0.00 | 0.00 | 0.02 | 67 | 1012.2 |
| 20260509003103 | 47 | 241 | 0.0 | 0.0 | 0.00 | 0.00 | 0.02 | 63 | 1012.0 |
| 20260509002609 | 48 | 241 | 0.0 | 0.0 | 0.00 | 0.00 | 0.02 | 57 | 1011.6 |
| 20260509002603 | 47 | 240 | 0.0 | 0.0 | 0.00 | 0.00 | 0.02 | 63 | 1011.8 |
| 20260509002103 | 48 | 241 | 0.0 | 0.0 | 0.00 | 0.00 | 0.02 | 57 | 1011.7 |
| 20260509001105 | 50 | 240 | 0.0 | 0.0 | 0.00 | 0.00 | 0.02 | 57 | 1011.6 |
| 20260509001101 | 49 | 241 | 0.0 | 0.0 | 0.00 | 0.00 | 0.02 | 57 | 1011.7 |
| 20260509000716 | 50 | 241 | 0.0 | 0.0 | 0.00 | 0.00 | 0.02 | 54 | 1011.6 |
| 20260508235602 | 51 | 240 | 0.0 | 0.0 | 0.00 | 0.00 | 0.02 | 55 | 1011.6 |
| 20260508235101 | 51 | 240 | 0.0 | 0.0 | 0.00 | 0.00 | 0.02 | 52 | 1011.6 |
| 20260508234602 | 52 | 240 | 0.0 | 0.0 | 0.00 | 0.00 | 0.02 | 48 | 1011.5 |
| 20260508234101 | 53 | 240 | 0.0 | 0.0 | 0.00 | 0.00 | 0.02 | 48 | 1011.6 |
| 20260508233601 | 53 | 240 | 0.0 | 0.0 | 0.00 | 0.00 | 0.02 | 48 | 1011.5 |
| 20260508233100 | 54 | 240 | 0.0 | 0.0 | 0.00 | 0.00 | 0.02 | 45 | 1011.3 |
| 20260508232602 | 54 | 243 | 0.0 | 0.0 | 0.00 | 0.00 | 0.02 | 45 | 1011.2 |
| 20260508232101 | 55 | 261 | 0.0 | 0.0 | 0.00 | 0.00 | 0.02 | 44 | 1011.3 |
| 20260508231601 | 55 | 264 | 0.0 | 0.0 | 0.00 | 0.00 | 0.02 | 44 | 1011.2 |
| 20260508231059 | 55 | 250 | 0.0 | 0.0 | 0.00 | 0.00 | 0.02 | 43 | 1011.2 |
| 20260508230606 | 56 | 159 | 0.0 | 0.0 | 0.00 | 0.00 | 0.02 | 42 | 1011.0 |
| 20260508230559 | 56 | 68 | 0.0 | 0.0 | 0.00 | 0.00 | 0.02 | 42 | 1011.1 |
| 20260508230059 | 56 | 313 | 0.0 | 0.0 | 0.00 | 0.00 | 0.02 | 42 | 1011.0 |
| 20260508225059 | 56 | 204 | 0.0 | 0.0 | 0.00 | 0.00 | 0.02 | 42 | 1010.9 |
| 20260508224559 | 56 | 278 | 0.0 | 0.0 | 0.00 | 0.00 | 0.02 | 42 | 1011.0 |
| 20260508224100 | 56 | 266 | 0.0 | 0.0 | 0.00 | 0.00 | 0.02 | 42 | 1011.0 |
| 20260508223559 | 56 | 357 | 0.0 | 0.0 | 0.00 | 0.00 | 0.02 | 41 | 1010.9 |
| 20260508223103 | 57 | 303 | 0.0 | 4.0 | 0.00 | 0.00 | 0.02 | 41 | 1010.8 |
| 20260508223059 | 56 | 244 | 0.0 | 0.0 | 0.00 | 0.00 | 0.02 | 41 | 1011.1 |
| 20260508222059 | 57 | 275 | 0.0 | 4.0 | 0.00 | 0.00 | 0.02 | 40 | 1010.7 |
| 20260508221604 | 57 | 329 | 0.0 | 4.0 | 0.00 | 0.00 | 0.02 | 40 | 1010.8 |
| 20260508221101 | 58 | 266 | 0.0 | 1.0 | 0.00 | 0.00 | 0.02 | 39 | 1010.7 |
| 20260508221057 | 57 | 189 | 0.0 | 1.0 | 0.00 | 0.00 | 0.02 | 39 | 1010.7 |
| 20260508220057 | 57 | 245 | 0.0 | 0.0 | 0.00 | 0.00 | 0.02 | 40 | 1010.8 |
| 20260508215059 | 57 | 261 | 0.0 | 1.0 | 0.00 | 0.00 | 0.02 | 40 | 1010.8 |
| 20260508214558 | 57 | 309 | 0.0 | 4.0 | 0.00 | 0.00 | 0.02 | 40 | 1010.8 |
| 20260508214058 | 56 | 259 | 0.0 | 4.0 | 0.00 | 0.00 | 0.02 | 40 | 1010.9 |
| 20260508213556 | 56 | 226 | 0.0 | 2.0 | 0.00 | 0.00 | 0.02 | 40 | 1010.9 |
| 20260508213056 | 56 | 6 | 0.0 | 2.0 | 0.00 | 0.00 | 0.02 | 40 | 1010.9 |
| 20260508212557 | 56 | 144 | 0.0 | 1.0 | 0.00 | 0.00 | 0.02 | 40 | 1011.0 |
| 20260508212057 | 57 | 345 | 0.0 | 4.0 | 0.00 | 0.00 | 0.02 | 40 | 1010.9 |
| 20260508211557 | 56 | 340 | 1.0 | 4.0 | 0.00 | 0.00 | 0.02 | 41 | 1010.9 |
| 20260508211100 | 56 | 271 | 0.0 | 0.0 | 0.00 | 0.00 | 0.02 | 42 | 1010.8 |
| 20260508211056 | 56 | 324 | 0.0 | 0.0 | 0.00 | 0.00 | 0.02 | 42 | 1010.8 |
| 20260508210056 | 56 | 68 | 0.0 | 0.0 | 0.00 | 0.00 | 0.02 | 42 | 1010.9 |
| 20260508205556 | 56 | 252 | 0.0 | 0.0 | 0.00 | 0.00 | 0.02 | 41 | 1010.9 |
| 20260508205054 | 0 | 0.0 | 0.0 | 0.00 | 0.00 | 0.02 | 1010.8 | ||
| 20260508203558 | 56 | 72 | 0.0 | 0.0 | 0.00 | 0.02 | 0.02 | 42 | 1011.1 |
| 20260508203059 | 56 | 72 | 0.0 | 1.0 | 0.00 | 0.02 | 0.02 | 42 | 1011.3 |
| 20260508202557 | 56 | 147 | 0.0 | 5.0 | 0.00 | 0.02 | 0.02 | 43 | 1011.1 |
| 20260508202058 | 56 | 319 | 2.0 | 5.0 | 0.00 | 0.02 | 0.02 | 42 | 1011.0 |
| 20260508201557 | 56 | 212 | 0.0 | 4.0 | 0.00 | 0.02 | 0.02 | 44 | 1010.9 |
| 20260508201102 | 56 | 18 | 0.0 | 6.0 | 0.00 | 0.02 | 0.02 | 44 | 1011.0 |
| 20260508200559 | 56 | 326 | 0.0 | 6.0 | 0.00 | 0.02 | 0.02 | 49 | 1011.0 |
| 20260508200057 | 56 | 71 | 1.0 | 7.0 | 0.00 | 0.02 | 0.02 | 43 | 1011.0 |
| 20260508195558 | 56 | 55 | 0.0 | 7.0 | 0.00 | 0.02 | 0.02 | 42 | 1010.9 |
| 20260508195056 | 56 | 27 | 0.0 | 5.0 | 0.00 | 0.02 | 0.02 | 42 | 1011.2 |
| 20260508194603 | 56 | 3 | 0.0 | 2.0 | 0.00 | 0.02 | 0.02 | 43 | 1011.2 |
| 20260508194055 | 56 | 331 | 0.0 | 0.0 | 0.00 | 0.02 | 0.02 | 47 | 1011.3 |
| 20260508193604 | 55 | 147 | 0.0 | 0.0 | 0.00 | 0.02 | 0.02 | 44 | 1011.2 |
| 20260508193057 | 55 | 147 | 0.0 | 4.0 | 0.00 | 0.02 | 0.02 | 44 | 1011.2 |
| 20260508192554 | 56 | 241 | 0.0 | 6.0 | 0.00 | 0.02 | 0.02 | 44 | 1011.2 |
| 20260508192052 | 56 | 230 | 0.0 | 6.0 | 0.00 | 0.02 | 0.02 | 42 | 1011.2 |
| 20260508191554 | 55 | 334 | 2.0 | 4.0 | 0.00 | 0.02 | 0.02 | 46 | 1011.5 |
| 20260508191052 | 55 | 334 | 2.0 | 9.0 | 0.00 | 0.02 | 0.02 | 46 | 1011.3 |
| 20260508190553 | 56 | 258 | 3.0 | 9.0 | 0.00 | 0.02 | 0.02 | 45 | 1011.2 |
| 20260508190051 | 56 | 234 | 1.0 | 9.0 | 0.00 | 0.02 | 0.02 | 45 | 1011.1 |
| 20260508185550 | 57 | 259 | 2.0 | 9.0 | 0.00 | 0.02 | 0.02 | 47 | 1011.2 |
| 20260508185052 | 56 | 348 | 0.0 | 5.0 | 0.00 | 0.02 | 0.02 | 47 | 1011.3 |
| 20260508184551 | 56 | 355 | 0.0 | 3.0 | 0.00 | 0.02 | 0.02 | 48 | 1011.1 |
| 20260508184050 | 56 | 1 | 0.0 | 1.0 | 0.00 | 0.02 | 0.02 | 52 | 1011.1 |
| 20260508183556 | 56 | 56 | 0.0 | 5.0 | 0.00 | 0.02 | 0.02 | 52 | 1011.0 |
| 20260508183552 | 57 | 340 | 0.0 | 1.0 | 0.00 | 0.02 | 0.02 | 52 | 1011.0 |
| 20260508182558 | 56 | 276 | 0.0 | 4.0 | 0.00 | 0.02 | 0.02 | 53 | 1011.1 |
| 20260508182553 | 56 | 262 | 0.0 | 5.0 | 0.00 | 0.02 | 0.02 | 53 | 1011.1 |
| 20260508181556 | 55 | 251 | 0.0 | 11.0 | 0.00 | 0.02 | 0.02 | 53 | 1011.2 |
| 20260508181551 | 55 | 353 | 0.0 | 5.0 | 0.00 | 0.02 | 0.02 | 52 | 1011.2 |
| 20260508180550 | 55 | 329 | 2.0 | 11.0 | 0.00 | 0.02 | 0.02 | 53 | 1011.3 |
| 20260508180050 | 55 | 320 | 3.0 | 11.0 | 0.00 | 0.02 | 0.02 | 56 | 1011.3 |
| 20260508175554 | 55 | 268 | 2.0 | 12.0 | 0.00 | 0.02 | 0.02 | 58 | 1011.3 |
| 20260508175550 | 55 | 238 | 0.0 | 12.0 | 0.00 | 0.02 | 0.02 | 58 | 1011.2 |
| 20260508174550 | 55 | 261 | 0.0 | 1.0 | 0.00 | 0.02 | 0.02 | 65 | 1011.3 |
| 20260508174049 | 52 | 262 | 0.0 | 0.0 | 0.00 | 0.02 | 0.02 | 65 | 1011.2 |
| 20260508173553 | 52 | 351 | 0.0 | 0.0 | 0.00 | 0.02 | 0.02 | 67 | 1011.9 |
| 20260508173548 | 52 | 262 | 0.0 | 0.0 | 0.00 | 0.02 | 0.02 | 65 | 1011.5 |
| 20260508173049 | 52 | 223 | 0.0 | 0.0 | 0.00 | 0.02 | 0.02 | 67 | 1011.6 |
| 20260508172658 | 52 | 258 | 0.0 | 0.0 | 0.00 | 0.02 | 0.02 | 67 | 1011.8 |
| 20260508172046 | 52 | 351 | 0.0 | 0.0 | 0.00 | 0.02 | 0.02 | 67 | 1011.9 |
| 20260508171656 | 52 | 293 | 0.0 | 0.0 | 0.00 | 0.02 | 0.02 | 66 | 1011.6 |
| 20260508170550 | 51 | 300 | 0.0 | 0.0 | 0.00 | 0.02 | 0.02 | 72 | 1011.3 |
| 20260508170546 | 51 | 20 | 0.0 | 0.0 | 0.00 | 0.02 | 0.02 | 72 | 1011.3 |
| 20260508165551 | 50 | 340 | 0.0 | 0.0 | 0.01 | 0.02 | 0.02 | 74 | 1011.9 |
| 20260508165546 | 51 | 337 | 0.0 | 0.0 | 0.00 | 0.02 | 0.02 | 72 | 1011.5 |
| 20260508165203 | 49 | 259 | 0.0 | 0.0 | 0.01 | 0.02 | 0.02 | 79 | 1012.0 |
| 20260508165045 | 50 | 206 | 0.0 | 0.0 | 0.00 | 0.02 | 0.02 | 74 | 1011.7 |
| 20260508163544 | 48 | 351 | 0.0 | 0.0 | 0.01 | 0.02 | 0.02 | 79 | 1012.1 |
| 20260508163045 | 48 | 233 | 0.0 | 0.0 | 0.02 | 0.02 | 0.02 | 81 | 1012.1 |
| 20260508162545 | 47 | 6 | 0.0 | 0.0 | 0.02 | 0.02 | 0.02 | 81 | 1012.2 |
| 20260508162043 | 46 | 86 | 0.0 | 0.0 | 0.02 | 0.02 | 0.02 | 81 | 1012.3 |
| 20260508161544 | 46 | 269 | 0.0 | 0.0 | 0.02 | 0.02 | 0.02 | 81 | 1012.5 |
| 20260508161044 | 46 | 338 | 0.0 | 0.0 | 0.02 | 0.02 | 0.02 | 82 | 1012.5 |
| 20260508160548 | 46 | 0 | 0.0 | 0.0 | 0.02 | 0.02 | 0.02 | 79 | 1012.5 |
| 20260508160543 | 46 | 268 | 0.0 | 0.0 | 0.02 | 0.02 | 0.02 | 83 | 1012.5 |
| 20260508155548 | 46 | 0 | 0.0 | 0.0 | 0.02 | 0.02 | 0.02 | 79 | 1012.5 |
| 20260508155544 | 45 | 275 | 0.0 | 0.0 | 0.02 | 0.02 | 0.02 | 79 | 1012.5 |
| 20260508155153 | 46 | 16 | 0.0 | 0.0 | 0.01 | 0.01 | 0.01 | 69 | 1012.5 |
| 20260508154042 | 47 | 337 | 0.0 | 0.0 | 0.01 | 0.01 | 0.01 | 69 | 1012.6 |
| 20260508153546 | 49 | 306 | 0.0 | 0.0 | 0.00 | 0.00 | 0.00 | 63 | 1012.3 |
| 20260508153542 | 48 | 283 | 0.0 | 0.0 | 0.01 | 0.01 | 0.01 | 69 | 1012.5 |
| 20260508152549 | 51 | 320 | 0.0 | 0.0 | 0.00 | 0.00 | 0.00 | 52 | 1011.6 |
| 20260508152542 | 50 | 240 | 0.0 | 1.0 | 0.00 | 0.00 | 0.00 | 61 | 1012.1 |
| 20260508152042 | 51 | 306 | 0.0 | 1.0 | 0.00 | 0.00 | 0.00 | 59 | 1011.9 |
| 20260508151542 | 51 | 257 | 0.0 | 0.0 | 0.00 | 0.00 | 0.00 | 55 | 1011.7 |
| 20260508150545 | 51 | 351 | 0.0 | 0.0 | 0.00 | 0.00 | 0.00 | 50 | 1011.3 |
| 20260508150541 | 51 | 320 | 0.0 | 0.0 | 0.00 | 0.00 | 0.00 | 52 | 1011.5 |
| 20260508145540 | 52 | 262 | 0.0 | 0.0 | 0.00 | 0.00 | 0.00 | 50 | 1011.5 |
| 20260508145047 | 52 | 264 | 0.0 | 0.0 | 0.00 | 0.00 | 0.00 | 50 | 1011.5 |
| 20260508145042 | 52 | 247 | 0.0 | 0.0 | 0.00 | 0.00 | 0.00 | 50 | 1011.3 |
| 20260508144039 | 52 | 23 | 0.0 | 0.0 | 0.00 | 0.00 | 0.00 | 50 | 1011.3 |
| 20260508143541 | 52 | 326 | 0.0 | 0.0 | 0.00 | 0.00 | 0.00 | 51 | 1011.5 |
| 20260508143041 | 52 | 337 | 0.0 | 0.0 | 0.00 | 0.00 | 0.00 | 48 | 1011.3 |
| 20260508142541 | 52 | 1 | 0.0 | 0.0 | 0.00 | 0.00 | 0.00 | 54 | 1011.3 |
| 20260508142040 | 52 | 300 | 0.0 | 0.0 | 0.00 | 0.00 | 0.00 | 54 | 1011.5 |
| 20260508141540 | 52 | 300 | 0.0 | 0.0 | 0.00 | 0.00 | 0.00 | 54 | 1011.5 |
| 20260508141038 | 52 | 337 | 0.0 | 0.0 | 0.00 | 0.00 | 0.00 | 52 | 1011.6 |
| 20260508140539 | 51 | 116 | 0.0 | 0.0 | 0.00 | 0.00 | 0.00 | 51 | 1011.7 |
| 20260508140039 | 52 | 227 | 0.0 | 0.0 | 0.00 | 0.00 | 0.00 | 52 | 1011.8 |
| 20260508135537 | 51 | 0 | 0.0 | 0.0 | 0.00 | 0.00 | 0.00 | 51 | 1011.8 |
| 20260508135039 | 52 | 244 | 0.0 | 0.0 | 0.00 | 0.00 | 0.00 | 51 | 1011.8 |
| 20260508134537 | 51 | 243 | 0.0 | 0.0 | 0.00 | 0.00 | 0.00 | 51 | 1011.7 |
| 20260508134041 | 51 | 282 | 0.0 | 0.0 | 0.00 | 0.00 | 0.00 | 54 | 1011.8 |
| 20260508134037 | 51 | 292 | 0.0 | 0.0 | 0.00 | 0.00 | 0.00 | 52 | 1011.8 |
| 20260508133650 | 51 | 343 | 0.0 | 0.0 | 0.00 | 0.00 | 0.00 | 53 | 1011.9 |
| 20260508132536 | 51 | 262 | 0.0 | 0.0 | 0.00 | 0.00 | 0.00 | 53 | 1012.0 |
| 20260508132041 | 52 | 224 | 0.0 | 0.0 | 0.00 | 0.00 | 0.00 | 57 | 1011.8 |
| 20260508132037 | 51 | 269 | 0.0 | 0.0 | 0.00 | 0.00 | 0.00 | 55 | 1011.8 |
| 20260508131655 | 50 | 89 | 0.0 | 0.0 | 0.00 | 0.00 | 0.00 | 59 | 1011.6 |
| 20260508131036 | 51 | 337 | 0.0 | 0.0 | 0.00 | 0.00 | 0.00 | 59 | 1011.7 |
| 20260508130037 | 50 | 31 | 0.0 | 0.0 | 0.00 | 0.00 | 0.00 | 58 | 1011.6 |
| 20260508125537 | 50 | 329 | 0.0 | 0.0 | 0.00 | 0.00 | 0.00 | 58 | 1011.8 |
| 20260508125036 | 50 | 348 | 0.0 | 0.0 | 0.00 | 0.00 | 0.00 | 60 | 1011.8 |
| 20260508124535 | 49 | 279 | 0.0 | 0.0 | 0.00 | 0.00 | 0.00 | 60 | 1011.9 |
| 20260508124042 | 49 | 259 | 0.0 | 0.0 | 0.00 | 0.00 | 0.00 | 60 | 1011.8 |
| 20260508123535 | 49 | 338 | 0.0 | 0.0 | 0.00 | 0.00 | 0.00 | 62 | 1012.0 |
| 20260508123035 | 49 | 240 | 0.0 | 0.0 | 0.00 | 0.00 | 0.00 | 63 | 1012.1 |
| 20260508122539 | 0 | 220 | 0.0 | 0.0 | 0.00 | 0.00 | 0.00 | 1012.1 | |
| 20260508122535 | 49 | 295 | 0.0 | 0.0 | 0.00 | 0.00 | 0.00 | 65 | 1012.0 |
| 20260508121534 | 48 | 45 | 0.0 | 0.0 | 0.00 | 0.00 | 0.00 | 75 | 1012.1 |
| 20260508121033 | 48 | 45 | 0.0 | 0.0 | 0.00 | 0.00 | 0.00 | 75 | 1012.0 |
| 20260508120533 | 47 | 6 | 0.0 | 0.0 | 0.00 | 0.00 | 0.00 | 75 | 1012.0 |
| 20260508120140 | 46 | 295 | 0.0 | 0.0 | 0.00 | 0.00 | 0.00 | 75 | 1011.9 |
| 20260508120037 | 47 | 182 | 0.0 | 0.0 | 0.00 | 0.00 | 0.00 | 75 | 1012.0 |
| 20260508120033 | 47 | 182 | 0.0 | 0.0 | 0.00 | 0.00 | 0.00 | 75 | 1012.0 |
| 20260508114532 | 46 | 337 | 0.0 | 0.0 | 0.00 | 0.00 | 0.00 | 77 | 1012.0 |
| 20260508114036 | 45 | 238 | 0.0 | 0.0 | 0.00 | 0.00 | 0.00 | 81 | 1012.3 |
| 20260508114032 | 45 | 31 | 0.0 | 0.0 | 0.00 | 0.00 | 0.00 | 81 | 1012.1 |
| 20260508113032 | 44 | 264 | 0.0 | 0.0 | 0.00 | 0.00 | 0.00 | 83 | 1012.3 |
| 20260508112531 | 44 | 247 | 0.0 | 0.0 | 0.00 | 0.00 | 0.00 | 86 | 1012.3 |
| 20260508112030 | 43 | 248 | 0.0 | 0.0 | 0.00 | 0.00 | 0.00 | 86 | 1012.3 |
| 20260508111530 | 42 | 219 | 0.0 | 0.0 | 0.00 | 0.00 | 0.00 | 89 | 1012.2 |
| 20260508111032 | 0 | 230 | 0.0 | 0.0 | 0.00 | 0.00 | 0.00 | 1012.2 | |
| 20260508110529 | 0 | 230 | 0.0 | 0.0 | 0.00 | 0.00 | 0.00 | 1012.2 | |
| 20260508110032 | 39 | 274 | 0.0 | 0.0 | 0.00 | 0.00 | 0.00 | 89 | 1012.1 |
| 20260508110028 | 39 | 274 | 0.0 | 0.0 | 0.00 | 0.00 | 0.00 | 89 | 1012.2 |
| 20260508105029 | 38 | 265 | 0.0 | 0.0 | 0.00 | 0.00 | 0.00 | 88 | 1012.0 |
| 20260508104528 | 38 | 265 | 0.0 | 0.0 | 0.00 | 0.00 | 0.00 | 88 | 1012.0 |
| 20260508104028 | 38 | 265 | 0.0 | 0.0 | 0.00 | 0.52 | 0.00 | 88 | 1012.1 |
| 20260508103530 | 0 | 0.0 | 0.0 | 0.00 | 0.52 | 0.00 | 1011.9 | ||
| 20260508103526 | 0 | 0.0 | 0.0 | 0.00 | 0.52 | 0.00 | 1012.0 | ||
| 20260508102524 | 0 | 0.0 | 0.0 | 0.00 | 0.52 | 0.00 | 1011.9 | ||
| 20260508102025 | 38 | 274 | 0.0 | 0.0 | 0.00 | 0.52 | 0.00 | 87 | 1011.9 |
| 20260508101528 | 0 | 274 | 0.0 | 0.0 | 0.00 | 0.52 | 0.00 | 1011.9 | |
| 20260508101524 | 38 | 274 | 0.0 | 0.0 | 0.00 | 0.52 | 0.00 | 87 | 1011.8 |
| 20260508100528 | 38 | 261 | 0.0 | 0.0 | 0.00 | 0.52 | 0.00 | 87 | 1011.7 |
| 20260508100524 | 38 | 261 | 0.0 | 0.0 | 0.00 | 0.52 | 0.00 | 87 | 1011.8 |
| 20260508095523 | 38 | 259 | 0.0 | 0.0 | 0.00 | 0.52 | 0.00 | 87 | 1011.7 |
| 20260508095028 | 38 | 259 | 0.0 | 0.0 | 0.00 | 0.52 | 0.00 | 85 | 1011.7 |
| 20260508095023 | 38 | 259 | 0.0 | 0.0 | 0.00 | 0.52 | 0.00 | 85 | 1011.7 |
| 20260508094522 | 38 | 259 | 0.0 | 0.0 | 0.00 | 0.52 | 0.00 | 85 | 1011.7 |
| 20260508093520 | 38 | 259 | 0.0 | 0.0 | 0.00 | 0.52 | 0.00 | 85 | 1011.7 |
| 20260508093020 | 38 | 264 | 0.0 | 0.0 | 0.00 | 0.52 | 0.00 | 85 | 1011.7 |
| 20260508092524 | 38 | 255 | 0.0 | 0.0 | 0.00 | 0.52 | 0.00 | 85 | 1011.7 |
| 20260508092019 | 38 | 255 | 0.0 | 0.0 | 0.00 | 0.52 | 0.00 | 85 | 1011.6 |
| 20260508091518 | 0 | 255 | 0.0 | 0.0 | 0.00 | 0.52 | 0.00 | 1011.6 | |
| 20260508091017 | 38 | 255 | 0.0 | 0.0 | 0.00 | 0.52 | 0.00 | 85 | 1011.6 |
| 20260508090517 | 38 | 255 | 0.0 | 0.0 | 0.00 | 0.52 | 0.00 | 85 | 1011.5 |
| 20260508090018 | 0 | 255 | 0.0 | 0.0 | 0.00 | 0.52 | 0.00 | 1011.3 | |
| 20260508085516 | 0 | 333 | 20.0 | 81.0 | 0.00 | 0.52 | 0.00 | 1011.3 | |
| 20260508085015 | 39 | 333 | 20.0 | 81.0 | 0.00 | 0.52 | 0.00 | 81 | 1011.2 |
| 20260508084515 | 39 | 220 | 0.0 | 0.0 | 0.00 | 0.52 | 0.00 | 81 | 1011.1 |
| 20260508084015 | 39 | 259 | 0.0 | 0.0 | 0.00 | 0.52 | 0.00 | 81 | 1011.2 |
| 20260508083515 | 40 | 259 | 0.0 | 0.0 | 0.00 | 0.52 | 0.00 | 81 | 1011.3 |
| 20260508083015 | 40 | 255 | 0.0 | 0.0 | 0.00 | 0.52 | 0.00 | 79 | 1011.3 |
| 20260508082515 | 0 | 0.0 | 0.0 | 0.00 | 0.52 | 0.00 | 1011.3 | ||
| 20260508082015 | 40 | 330 | 0.0 | 0.0 | 0.00 | 0.52 | 0.00 | 79 | 1011.3 |
| 20260508081513 | 40 | 330 | 0.0 | 0.0 | 0.00 | 0.52 | 0.00 | 79 | 1011.3 |
| 20260508081012 | 0 | 16 | 0.0 | 0.0 | 0.00 | 0.52 | 0.00 | 1011.2 | |
| 20260508080513 | 41 | 16 | 0.0 | 0.0 | 0.00 | 0.52 | 0.00 | 76 | 1011.1 |
| 20260508080011 | 41 | 16 | 0.0 | 0.0 | 0.00 | 0.52 | 0.00 | 76 | 1011.0 |
| 20260508075511 | 41 | 16 | 0.0 | 0.0 | 0.00 | 0.52 | 0.00 | 74 | 1011.0 |
| 20260508075011 | 41 | 16 | 0.0 | 0.0 | 0.00 | 0.52 | 0.00 | 74 | 1011.0 |
| 20260508074511 | 42 | 16 | 0.0 | 0.0 | 0.00 | 0.52 | 0.00 | 74 | 1011.0 |
| 20260508074015 | 42 | 16 | 0.0 | 0.0 | 0.00 | 0.52 | 0.00 | 73 | 1011.1 |
| 20260508074011 | 42 | 16 | 0.0 | 0.0 | 0.00 | 0.52 | 0.00 | 74 | 1011.0 |
| 20260508073010 | 0 | 59 | 0.0 | 0.0 | 0.00 | 0.52 | 0.00 | 1010.9 | |
| 20260508072510 | 43 | 59 | 0.0 | 0.0 | 0.00 | 0.52 | 0.00 | 69 | 1010.9 |
| 20260508072009 | 43 | 59 | 0.0 | 0.0 | 0.00 | 0.52 | 0.00 | 69 | 1011.0 |
| 20260508071509 | 44 | 59 | 0.0 | 0.0 | 0.00 | 0.52 | 0.00 | 68 | 1011.0 |
| 20260508071008 | 44 | 59 | 0.0 | 0.0 | 0.00 | 0.52 | 0.00 | 65 | 1011.0 |
| 20260508070509 | 45 | 73 | 0.0 | 0.0 | 0.00 | 0.52 | 0.00 | 65 | 1010.8 |
| 20260508070008 | 45 | 73 | 0.0 | 0.0 | 0.00 | 0.52 | 0.00 | 65 | 1010.9 |
| 20260508065508 | 46 | 73 | 0.0 | 0.0 | 0.00 | 0.52 | 0.00 | 65 | 1010.8 |
| 20260508065008 | 46 | 230 | 0.0 | 0.0 | 0.00 | 0.52 | 0.00 | 64 | 1010.9 |
| 20260508064507 | 46 | 230 | 0.0 | 0.0 | 0.00 | 0.52 | 0.00 | 64 | 1011.0 |
| 20260508064006 | 46 | 341 | 0.0 | 0.0 | 0.00 | 0.52 | 0.00 | 63 | 1011.0 |
| 20260508063507 | 46 | 337 | 0.0 | 0.0 | 0.00 | 0.52 | 0.00 | 62 | 1011.1 |